EDRS-C

Last updated on Aug. 7, 2020, 5:35 a.m. UTC

1 44475U 19049A   20219.03827383  .00000140  00000-0  00000-0 0  9990
2 44475   0.0535 272.5980 0000257 169.2287 278.1578  1.00271538  3739
UTC
Height (km)
Latitude
Longitude
Inclination
Orbital Period
UTC large
Height (km)
Speed (km/s)
/
Latitude / Longitude
Inclination (degrees)
Orbital Period (minutes)
Azimuth
Elevation
Range (km)
Doppler Factor
iOS Compass Heading
iOS Angle

Next 30 passes for location: Hong Kong

Rise time Rise Azimuth (degrees) Set time Set Azimuth (degrees) Duration Max altitude (degrees)

No matching passes for this satellites